This demonstration page uses our WeatherBlox Daily Observations layout. Learn more.

Left ArrowRight Arrow

Hourly Observations for March 6, 2021

Temp ( °F °C ) Dew Point ( °F °C ) Humidity (%) Winds ( mph kmh ) Pressure ( in mb ) Visibility ( mi km ) Precip ( " mm )
12:51 am 00:51 Clear 58 14.4 27 -2.8 31 31 E 16 26 30.05 1018 10 16.0934 0 0
1:51 am 01:51 Clear 57 13.9 31 -0.6 37 37 ESE 16 26 30.07 1018 10 16.0934 0 0
2:51 am 02:51 Clear 56 13.3 32 0 40 40 ESE 17 28 30.05 1018 10 16.0934 0 0
3:51 am 03:51 Clear 55 12.8 33 0.6 44 44 ESE 16 26 30.06 1018 10 16.0934 0 0
4:51 am 04:51 Clear 52 11.1 33 0.6 49 49 ESE 12 19 30.07 1018 10 16.0934 0 0
5:51 am 05:51 Clear 51 10.6 33 0.6 50 50 ESE 12 19 30.09 1019 10 16.0934 0 0
6:51 am 06:51 Sunny 50 10 33 0.6 52 52 ESE 14 22 30.09 1019 10 16.0934 0 0
7:51 am 07:51 Sunny 55 12.8 33 0.6 44 44 ESE 18 30 30.11 1020 10 16.0934 0 0
8:51 am 08:51 Sunny 58 14.4 32 0 38 38 ESE 18 30 30.11 1020 10 16.0934 0 0
9:51 am 09:51 Sunny 61 16.1 31 -0.6 32 32 SE 22 35 30.09 1019 10 16.0934 0 0
10:51 am 10:51 Sunny 64 17.8 30 -1.1 28 28 SE 23 37 30.08 1019 10 16.0934 0 0
11:51 am 11:51 Sunny 67 19.4 31 -0.6 26 26 ESE 14 22 30.04 1017 10 16.0934 0 0
12:51 pm 12:51 Sunny 68 20 31 -0.6 25 25 SSE 16 26 29.99 1016 10 16.0934 0 0
1:51 pm 13:51 Sunny 70 21.1 29 -1.7 22 22 SE 10 17 29.94 1014 10 16.0934 0 0
2:51 pm 14:51 Sunny 73 22.8 29 -1.7 19 19 SSE 15 24 29.91 1013 10 16.0934 0 0
3:51 pm 15:51 Sunny 72 22.2 28 -2.2 19 19 SE 9 15 29.89 1012 10 16.0934 0 0
4:51 pm 16:51 Sunny 72 22.2 27 -2.8 19 19 SE 10 17 29.88 1012 10 16.0934 0 0
5:51 pm 17:51 Sunny 71 21.7 27 -2.8 19 19 ESE 8 13 29.89 1012 10 16.0934 0 0
6:51 pm 18:51 Clear 65 18.3 27 -2.8 24 24 E 7 11 29.92 1013 10 16.0934 0 0
7:51 pm 19:51 Clear 64 17.8 28 -2.2 26 26 E 12 19 29.93 1014 10 16.0934 0 0
8:51 pm 20:51 Clear 64 17.8 28 -2.2 26 26 E 12 19 29.94 1014 10 16.0934 0 0
9:51 pm 21:51 Clear 59 15 27 -2.8 29 29 S 8 13 29.96 1015 10 16.0934 0 0
10:51 pm 22:51 Clear 56 13.3 27 -2.8 33 33 SSE 7 11 29.97 1015 10 16.0934 0 0
11:51 pm 23:51 Clear 53 11.7 26 -3.3 35 35 SE 7 11 29.97 1015 10 16.0934 0 0

Powered by AerisWeather